Regional Weather Roundup
Issued by NWS Lake Charles, LA

Home | Current Version | Previous Version | Text Only | Print | Product List | Glossary On
Versions: 1 2 3 4 5 6 7 8 9 10 11 12 13 14 15 16 17 18 19 20 21 22 23 24 25 26 27
000
ASUS44 KLCH 240910
RWRLCH
RWRLCH
REGIONAL WEATHER ROUNDUP
NATIONAL WEATHER SERVICE LAKE CHARLES LA
400 AM CDT FRI OCT 24 2014

Note: "fair" indicates few or no clouds below 12,000 feet with no
significant weather and/or obstructions to visibility.


ACROSS SOUTHEAST TEXAS

CITY           SKY/WX    TMP DP  RH WIND       PRES   REMARKS
BEAUMONT       CLEAR     53  51  93 N6        30.11S
BEAUMONT CITY    N/A     50  50 100 CALM      30.12F
ORANGE         SUNNY    N/A N/A N/A CALM      30.13S
JASPER         CLEAR     48  47  98 CALM      30.15S FOG
$$

ACROSS CENTRAL LOUISIANA

CITY           SKY/WX    TMP DP  RH WIND       PRES   REMARKS
LEESVILLE      CLEAR     52  49  90 NE7       30.12S
FULLERTON        N/A     51  47  86 CALM      30.10S
ALEXANDRIA INT CLEAR     47  46  97 S3        30.11F
ESLER FIELD    CLEAR     43  43 100 CALM      30.12F
DERIDDER         N/A     49  47  95 CALM      30.14S
OAKDALE          N/A     46  45  97 CALM      30.12S
OPELOUSAS        N/A     47  47  99 CALM      30.10F FOG
$$

ACROSS SOUTHWEST AND SOUTH CENTRAL LOUISIANA

CITY           SKY/WX    TMP DP  RH WIND       PRES   REMARKS
SULPHUR        SUNNY     51  51  97 N3        30.12S
LAKE CHARLES   CLEAR     53  49  86 N6        30.11S
CHENNAULT INT  CLEAR     51  49  93 N5        30.12R
CAMERON PHI    SUNNY     55  52  88 N8        30.13S
DEQUINCY         N/A     48  47  99 CALM      30.12S
JENNINGS         N/A     51  50  97 CALM      30.10F
LAFAYETTE      CLEAR     52  50  93 CALM      30.10S
NEW IBERIA     CLEAR     56  51  84 NE6       30.10S
ABBEVILLE        N/A     49  49  99 CALM      30.10S
PATTERSON      CLEAR     55  52  88 N5        30.11S
SALT POINT       N/A     58  53  84 VRB5      30.08S
$$

SELECTED SITES ACROSS THE REGION

CITY           SKY/WX    TMP DP  RH WIND       PRES   REMARKS
HOUSTON BUSH   CLEAR     56  54  93 NE3       30.12S
HOUSTON HOBBY  CLEAR     60  55  83 NE3       30.11F
GALVESTON      CLEAR     64  60  87 NE8       30.11S
COLLEGE STAT   MOCLDY    61  54  77 E5        30.12F
CONROE         CLEAR     53  51  93 CALM      30.13S
HUNTSVILLE     CLEAR     54  51  90 CALM      30.12F
LUFKIN         CLEAR     53  49  86 CALM      30.14R
SHREVEPORT     CLEAR     51  49  92 CALM      30.14S
MONROE         CLEAR     45  43  93 N5        30.15S FOG
NATCHEZ MS     PTCLDY    46  45  93 CALM      30.12S
BATON ROUGE    PTCLDY    52  49  89 CALM      30.09S
N.O. INTL ARPT CLEAR     60  51  72 NE9       30.08R
SLIDELL        CLEAR     49  47  93 N3        30.08R
$$

MARINE REPORTS

STATION/POSITION TIME  TEMP    WIND        PRES    VSBY  WAVE
                       AIR SEA DIR/SP/G                  HT/PER
                 (UTC) (F)     (DEG/KT/KT) (MB)    (MI)  (FT/S)
BUOY 30 S HIGH I 0900   69 77   50/  8/ 10 1018.7S         2/ 7
SEA RIM ST PARK  0900   58     360/  6/  7 1020.0F
PORT ARTHUR      0900      74   20/  3/  6 1019.6F
SABINE PASS N    0900   59 72   30/  8/ 10 1019.5F
TEXAS POINT      0900   58 72   10/  8/  9 1019.5F
CALCASIEU PASS   0900   58 72   40/  5/  7   N/A
LK CHARLES BEACH 0900   54 75              1019.7S
MARSH ISLAND     NOT AVBL
FRESH WATER LOCK 0900   56 74   30/  5/  7 1018.8R
AMERADA PASS     0900   57 70   30/  3/  6 1018.5R
$$



USA.gov is the U.S. government's official web portal to all federal, state and local government web resources and services.